User: anonymous   Login
Location: Unspecified
(0.0000°N, 0.0000°E)
Time: 06:20:42
(UTC+00:00)
Language:

ORS OBJECT Z - Orbit

View from above orbital plane
View from above orbital plane
View from above satellite
View from above satellite

Ground track
Ground track

The orbit data is extracted from the following two-line orbital elements,

1 39403U 13064Z   18116.70958209  .00006070  00000-0  98543-4 0  9996
2 39403  40.5234 296.9928 0003053  27.1574 332.9405 15.53105962247490
Epoch (UTC): 26 April 2018 17:01:47
Eccentricity: 0.0003053
inclination: 40.5234°
perigee height: 405 km
apogee height: 410 km
right ascension of ascending node: 296.9928°
argument of perigee: 27.1574°
revolutions per day: 15.53105962
mean anomaly at epoch: 332.9405°
orbit number at epoch: 24749

The dashed part of the orbit path shows where the satellite is in the earth's shadow,  

DLR